Simultaneous Nadir Overpasses (SNOs) Predictions

Prediction of SNOs between METOP-A and NOAA-19 Satellite Orbit:

Table of predicted SNOs for the next 14.0 days since TLE Epoch: 1/4/2015
Index Date (METOP-A) Time (METOP-A) Lat,Lon (METOP-A) SZA (METOP-A ) Date (NOAA-19) Time (NOAA-19) Lat,Lon (NOAA-19) SZA (NOAA-19 ) Distance(km) Time Diff (sec)
1 01/10/2015 21:29:49 -74.76, 34.17 83.37 01/10/2015 21:28:37 -74.76, 33.13 83.34 30.44 72
2 01/10/2015 22:20:33 74.56,-159.03 96.45 01/10/2015 22:19:35 74.53,-159.00 96.42 3.41 58
3 01/10/2015 23:11:15 -74.54, 8.25 83.58 01/10/2015 23:10:35 -74.52, 8.30 83.61 3.09 40
4 01/11/2015 00:01:55 74.54, 175.57 96.41 01/11/2015 00:01:38 74.53, 175.50 96.41 2.30 17
5 01/11/2015 00:52:37 -74.52, -17.15 83.62 01/11/2015 00:52:38 -74.52, -17.21 83.62 1.71 1
6 01/11/2015 01:43:18 74.47, 150.04 96.33 01/11/2015 01:43:40 74.48, 150.13 96.34 3.03 22
7 01/11/2015 02:33:59 -74.50, -42.56 83.65 01/11/2015 02:34:40 -74.47, -42.58 83.68 3.38 41
8 01/11/2015 03:24:40 74.44, 124.64 96.30 01/11/2015 03:25:43 74.48, 124.63 96.33 3.81 63
9 01/11/2015 04:15:27 -74.18, -68.71 83.95 01/11/2015 04:16:38 -74.23, -67.45 83.95 38.62 71




NCC Satellite Simultaneous Nadir Overpasses (SNOs) Prediction Service
